FW2498 Weather Reports


time (UTC)temp
C
wind
direction
speed
KPH
gust
KPH
rain 1hr
cm
rain 24hr
cm
rain mn
cm
humidity
%
barometer
mb
20260504034529 15 342 20.9 30.6 0.00 0.00 0.00 38 1004.0
20260504033029 16 356 24.1 37.0 0.00 0.00 0.00 38 1003.8
20260504031529 16 348 29.0 43.5 0.00 0.00 0.00 37 1003.5
20260504030030 17 343 38.6 54.7 0.00 0.00 0.00 35 1002.8
20260504024533 19 293 37.0 48.3 0.00 0.00 0.00 32 1001.9
20260504023026 19 287 24.1 37.0 0.00 0.00 0.00 32 1001.6
20260504021526 20 296 32.2 46.7 0.00 0.00 0.00 31 1001.5
20260504020024 20 290 30.6 41.8 0.00 0.00 0.00 31 1001.4
20260504014522 20 281 37.0 48.3 0.00 0.00 0.00 30 1001.4
20260504013033 21 309 37.0 51.5 0.00 0.00 0.00 30 1001.5
20260504011521 21 296 49.9 59.5 0.00 0.00 0.00 29 1001.7
20260504010020 22 281 37.0 51.5 0.00 0.00 0.00 26 1001.6
20260504004519 22 292 38.6 53.1 0.00 0.00 0.00 23 1001.6
20260504003034 22 270 45.1 61.2 0.00 0.00 0.00 23 1001.5
20260504001516 23 276 37.0 59.5 0.00 0.00 0.00 22 1001.7
20260504000014 23 280 43.5 61.2 0.00 0.00 0.00 22 1001.8
20260503234512 23 277 45.1 54.7 0.00 0.00 0.00 21 1001.9
20260503233009 23 282 43.5 57.9 0.00 0.00 0.00 21 1002.1
20260503231507 23 259 41.8 61.2 0.00 0.00 0.00 22 1002.2
20260503230007 23 257 38.6 56.3 0.00 0.00 0.00 24 1002.4
20260503224502 23 255 46.7 59.5 0.00 0.00 0.00 24 1002.9
20260503223059 23 250 38.6 54.7 0.00 0.00 0.00 26 1003.3
20260503221559 23 258 38.6 64.4 0.00 0.00 0.00 25 1003.6
20260503220054 22 266 45.1 57.9 0.00 0.00 0.00 24 1004.0
20260503214550 22 262 37.0 49.9 0.00 0.00 0.00 23 1004.4
20260503213049 22 254 37.0 54.7 0.00 0.00 0.00 23 1004.9
20260503211546 22 265 38.6 49.9 0.00 0.00 0.00 24 1005.1
20260503210043 22 250 40.2 51.5 0.00 0.00 0.00 28 1005.4
20260503204540 21 270 40.2 53.1 0.00 0.00 0.00 29 1005.6
20260503203043 21 250 38.6 49.9 0.00 0.00 0.00 29 1005.8
20260503201537 21 240 40.2 51.5 0.00 0.00 0.00 29 1006.0
20260503200035 21 250 35.4 49.9 0.00 0.00 0.00 28 1006.1
20260503194531 21 268 30.6 51.5 0.00 0.00 0.00 28 1006.5
20260503193028 21 274 40.2 51.5 0.00 0.00 0.00 28 1007.3
20260503191526 21 280 35.4 49.9 0.00 0.00 0.00 29 1007.5
20260503190025 21 262 38.6 51.5 0.00 0.00 0.00 31 1007.7
20260503184521 21 254 40.2 51.5 0.00 0.00 0.00 30 1008.1
20260503183017 21 229 29.0 54.7 0.00 0.00 0.00 33 1008.4
20260503181513 20 258 43.5 53.1 0.00 0.00 0.00 32 1008.9
20260503180009 20 240 41.8 59.5 0.00 0.00 0.00 34 1009.2
20260503174507 20 240 38.6 54.7 0.00 0.00 0.00 34 1009.7
20260503173005 19 240 33.8 49.9 0.00 0.00 0.00 35 1009.8
20260503171613 19 219 37.0 51.5 0.00 0.00 0.00 35 1010.0
20260503170105 19 255 33.8 53.1 0.00 0.00 0.00 35 1010.1
20260503081603 7 256 11.3 16.1 0.00 0.00 0.00 56 1014.7
20260503080109 7 245 11.3 14.5 0.00 0.00 0.00 55 1014.6
20260503071607 7 235 6.4 9.7 0.00 0.00 0.00 54 1014.7
20260503054553 8 284 4.8 6.4 0.00 0.00 0.00 49 1015.0
20260503053040 8 284 3.2 6.4 0.00 0.00 0.00 50 1014.9
20260503051538 8 284 3.2 4.8 0.00 0.00 0.00 49 1015.0
20260503050044 9 284 3.2 6.4 0.00 0.00 0.00 49 1015.1
20260503044548 9 285 4.8 6.4 0.00 0.00 0.00 48 1015.2
20260503043044 10 323 3.2 4.8 0.00 0.00 0.00 47 1015.2
20260503041535 10 7 3.2 6.4 0.00 0.00 0.00 47 1015.1
20260503040039 10 7 3.2 4.8 0.00 0.00 0.00 46 1015.1